Location: Unnamed
(48.6007°N, 2.4808°E)
Time: 12:05:43
(UTC+02:00)

SEEDS - Pass Details

Date: 04 April 2023
Orbit: 568 x 587 km, 97.7° (Epoch: 09 June)

Event Time Altitude Azimuth Distance (km) Brightness Sun altitude
Rises 06:41:26 0° 5° (N) 2,840 ? -7.5°
Reaches altitude 10° 06:43:45 10° 356° (N) 1,935 ? -7.1°
Maximum altitude 06:47:31 33° 292° (WNW) 1,003 ? -6.5°
Drops below altitude 10° 06:51:16 10° 228° (SW) 1,920 ? -5.9°
Enters shadow 06:53:09 - 220° (SW) 2,652 ? -5.6°
